Regional Weather Roundup
Issued by NWS Cleveland, OH

Home | Current Version | Previous Version | Graphics & Text | Print | Product List | Glossary On
Versions: 1 2 3 4 5 6 7 8 9 10 11 12 13 14 15 16 17 18 19 20 21 22 23 24 25 26 27 28 29 30 31 32 33 34 35 36 37 38 39 40 41 42 43 44 45 46 47 48 49 50
000
ASUS41 KCLE 222200
RWRCLE
OHIO REGIONAL WEATHER ROUNDUP
NATIONAL WEATHER SERVICE WILMINGTON, OH
600 PM EDT FRI AUG 22 2014

NOTE: "FAIR" INDICATES FEW OR NO CLOUDS BELOW 12,000 FEET WITH NO
SIGNIFICANT WEATHER AND/OR OBSTRUCTIONS TO VISIBILITY.

OHZ001>008-015>018-024>027-034-035-043-044-222300-
   NORTHWEST OHIO

CITY           SKY/WX    TMP DP  RH WIND       PRES   REMARKS
DEFIANCE       CLOUDY    83  72  69 NE7       29.95S
FINDLAY        PTSUNNY   82  74  76 W3        29.95S
TOLEDO EXPRESS CLOUDY    81  73  76 E5        29.95F
TOLEDO METCALF CLOUDY    80  71  74 NE5       29.96F
LIMA           PTSUNNY   80  73  79 NW9       29.97R
$$

OHZ009>014-019>023-028>033-038-089-222300-
   NORTHEAST OHIO

CITY           SKY/WX    TMP DP  RH WIND       PRES   REMARKS
CLE-HOPKINS    MOSUNNY   78  69  73 N8        29.97S
CLE-LAKEFRONT  MOSUNNY   76  71  85 NE9       29.95S
CUY CO. ARPT   PTSUNNY   79  73  83 N10       29.97R
LORAIN-ELYRIA  MOSUNNY   83  70  64 N8        29.97R
ASHTABULA      SUNNY     77  70  79 N6        29.98R
AKRON-CANTON   PTSUNNY   77  70  79 N3        29.95S
WOOSTER        NOT AVBL
MANSFIELD      CLOUDY    79  73  82 SW5       29.98R
YOUNGSTOWN     PTSUNNY   81  69  67 N8        29.96R
$$

OHZ042-051>053-060>062-070>072-077>081-222300-
  SOUTHWEST OHIO

CITY           SKY/WX    TMP DP  RH WIND       PRES   REMARKS
CINC-COVINGTON PTSUNNY   85  74  69 W12       29.96F HX  92
CINC-LUNKEN    PTSUNNY   87  74  64 VRB6      29.94F HX  95
HAMILTON       PTSUNNY   85  73  67 VRB7      29.96F HX  91
DAYTON         NOT AVBL
WRIGHT-PAT AFB NOT AVBL
DAYTON GENERAL PTSUNNY   84  73  69 W9        29.96F HX  90
WILMINGTON     PTSUNNY   84  72  67 W9        29.96F
$$

OHZ036-037-039>041-045>050-054>059-063>069-073>076-082>088-222300-
  CENTRAL AND SOUTHEAST OHIO

CITY           SKY/WX    TMP DP  RH WIND       PRES   REMARKS
COLUMBUS       CLOUDY    82  69  64 SW5       29.95S
OSU AIRPORT    PTSUNNY   81  72  74 SW9       29.95F
BOLTON FIELD   LGT RAIN  75  75 100 CALM      29.96F
RICKENBACK AFB NOT AVBL
NEWARK         PTSUNNY   81  71  71 SW8       29.95S
MARION         RAIN      80  73  79 CALM      29.96S
LANCASTER      CLOUDY    81  71  71 W3        29.96F
ZANESVILLE     CLOUDY    80  71  74 SW6       29.95F
NEW PHILLY     LGT RAIN  80  73  79 CALM      29.95S
$$



USA.gov is the U.S. government's official web portal to all federal, state and local government web resources and services.